This demonstration page uses our WeatherBlox Daily Observations layout. Learn more.

Hourly Observations for May 15, 2016

Temp ( °F °C ) Dew Point ( °F °C ) Humidity (%) Winds ( mph kmh ) Pressure ( in mb ) Visibility ( mi km ) Precip ( " mm )
12:15 am 00:15 Partly Cloudy 46 7.5 32 0 59 59 Calm 30.27 1025 10 16.0934 0 0
12:35 am 00:35 Partly Cloudy 46 7.5 31 -0.5 57 57 Calm 30.27 1025 10 16.0934 0 0
12:55 am 00:55 Clear 45 7.2 31 -0.5 58 58 Calm 30.27 1025 10 16.0934 0 0
1:15 am 01:15 Partly Cloudy 45 7.1 32 0 61 61 Calm 30.27 1025 10 16.0934 0 0
1:35 am 01:35 Partly Cloudy 45 7.2 31 -0.4 59 59 SSW 5 7 30.27 1025 10 16.0934 0 0
1:55 am 01:55 Clear 45 7.1 31 -0.3 60 60 Calm 30.27 1025 10 16.0934 0 0
2:15 am 02:15 Clear 45 7.2 31 -0.4 59 59 S 3 6 30.27 1025 10 16.0934 0 0
2:35 am 02:35 Clear 44 6.9 31 -0.4 60 60 Calm 30.27 1025 10 16.0934 0 0
2:55 am 02:55 Clear 43 6 33 0.3 67 67 Calm 30.27 1025 10 16.0934 0 0
3:15 am 03:15 Clear 43 6.3 32 0 64 64 SSE 3 6 30.27 1025 10 16.0934 0 0
3:35 am 03:35 Clear 43 6.1 32 0 65 65 SSE 5 7 30.27 1025 10 16.0934 0 0
3:55 am 03:55 Clear 43 6.3 33 0.4 66 66 SSE 5 7 30.27 1025 10 16.0934 0 0
4:15 am 04:15 Clear 43 6.2 33 0.7 68 68 SSE 3 6 30.27 1025 10 16.0934 0 0
4:35 am 04:35 Clear 44 6.5 33 0.5 66 66 SE 3 6 30.27 1025 10 16.0934 0 0
4:55 am 04:55 Mostly Cloudy 44 6.5 33 0.5 66 66 SE 5 7 30.27 1025 10 16.0934 0 0
5:15 am 05:15 Mostly Cloudy 44 6.5 33 0.6 66 66 SE 5 7 30.27 1025 10 16.0934 0 0
5:35 am 05:35 Partly Cloudy 44 6.5 33 0.3 65 65 SSE 5 7 30.27 1025 10 16.0934 0 0
5:55 am 05:55 Clear 44 6.5 32 0 64 64 SSE 5 7 30.27 1025 10 16.0934 0 0
6:15 am 06:15 Clear 44 6.5 32 -0.1 63 63 SSE 5 7 30.27 1025 10 16.0934 0 0
6:35 am 06:35 Sunny 43 6.1 32 0 65 65 SSE 3 6 30.24 1024 10 16.0934 0 0
6:55 am 06:55 Sunny 43 6.1 32 0.1 66 66 SSE 3 6 30.24 1024 10 16.0934 0 0
7:15 am 07:15 Sunny 44 6.8 32 0 62 62 SSE 6 9 30.24 1024 10 16.0934 0 0
7:35 am 07:35 Partly Cloudy 46 7.6 32 0 59 59 S 6 9 30.27 1025 10 16.0934 0 0
7:55 am 07:55 Sunny 47 8.4 32 -0.1 55 55 S 8 13 30.24 1024 10 16.0934 0 0
8:15 am 08:15 Sunny 48 9 32 0 54 54 S 6 9 30.24 1024 10 16.0934 0 0
8:35 am 08:35 Sunny 49 9.2 31 -0.3 52 52 S 9 15 30.21 1023 10 16.0934 0 0
8:55 am 08:55 Sunny 49 9.5 31 -0.6 50 50 S 10 17 30.21 1023 10 16.0934 0 0
9:15 am 09:15 Sunny 50 10.1 32 0 50 50 S 7 11 30.21 1023 10 16.0934 0 0
9:35 am 09:35 Sunny 51 10.6 32 0 48 48 S 13 20 30.21 1023 10 16.0934 0 0
9:55 am 09:55 Sunny 51 10.8 31 -0.3 47 47 S 12 19 30.21 1023 10 16.0934 0 0
10:15 am 10:15 Sunny 52 11 31 -0.4 46 46 S 13 20 30.18 1022 10 16.0934 0 0
10:35 am 10:35 Sunny 52 11.3 31 -0.4 45 45 S 9 15 30.18 1022 10 16.0934 0 0
10:55 am 10:55 Sunny 53 11.5 30 -0.9 43 43 S 13 20 30.18 1022 10 16.0934 0 0
11:15 am 11:15 Sunny 53 11.6 31 -0.7 43 43 S 10 17 30.15 1021 10 16.0934 0 0
11:35 am 11:35 Sunny 53 11.7 32 -0.1 44 44 SSE 10 17 30.15 1021 10 16.0934 0 0
11:55 am 11:55 Sunny 53 11.5 30 -1.1 42 42 S 13 20 30.15 1021 10 16.0934 0 0
12:15 pm 12:15 Sunny 54 12.1 31 -0.4 42 42 SSE 12 19 30.15 1021 10 16.0934 0 0
12:35 pm 12:35 Sunny 55 12.6 30 -1.3 38 38 S 10 17 30.15 1021 10 16.0934 0 0
12:55 pm 12:55 Sunny 55 12.5 29 -1.6 38 38 S 10 17 30.12 1020 10 16.0934 0 0
1:15 pm 13:15 Sunny 54 12.4 29 -1.5 38 38 S 13 20 30.12 1020 10 16.0934 0 0
1:35 pm 13:35 Sunny 55 13 31 -0.3 40 40 S 13 20 30.12 1020 10 16.0934 0 0
1:55 pm 13:55 Sunny 55 12.8 30 -1 39 39 S 14 22 30.12 1020 10 16.0934 0 0
2:15 pm 14:15 Sunny 54 12.2 30 -1.1 40 40 S 14 22 30.12 1020 10 16.0934 0 0
2:35 pm 14:35 Sunny 53 11.7 32 0 45 45 S 15 24 30.12 1020 10 16.0934 0 0
2:55 pm 14:55 Sunny 53 11.4 32 -0.2 45 45 S 13 20 30.12 1020 10 16.0934 0 0
3:15 pm 15:15 Sunny 52 10.9 33 0.3 48 48 S 15 24 30.12 1020 10 16.0934 0 0
3:35 pm 15:35 Sunny with Light Drizzle 49 9.3 37 2.5 63 63 SSE 12 19 30.15 1021 10 16.0934 0 0
3:55 pm 15:55 Partly Cloudy with Light Drizzle 48 9 36 2.3 63 63 SE 12 19 30.15 1021 10 16.0934 0 0
4:15 pm 16:15 Partly Cloudy 48 9.1 36 2.2 62 62 ESE 9 15 30.15 1021 10 16.0934 0 0
4:35 pm 16:35 Partly Cloudy 48 9.1 37 2.7 65 65 ESE 12 19 30.12 1020 10 16.0934 0 0
4:55 pm 16:55 Partly Cloudy 49 9.2 37 2.8 65 65 ESE 12 19 30.12 1020 10 16.0934 0 0
5:15 pm 17:15 Sunny 48 9.1 37 2.5 64 64 ESE 8 13 30.12 1020 10 16.0934 0 0
5:35 pm 17:35 Sunny 48 9 36 2.3 63 63 ESE 13 20 30.12 1020 10 16.0934 0 0
5:55 pm 17:55 Sunny 48 9 37 2.5 64 64 ESE 10 17 30.12 1020 10 16.0934 0 0
6:15 pm 18:15 Sunny 48 8.8 37 2.7 66 66 ESE 10 17 30.12 1020 10 16.0934 0 0
6:35 pm 18:35 Partly Cloudy 48 8.7 38 3.2 69 69 ESE 8 13 30.12 1020 10 16.0934 0 0
6:55 pm 18:55 Mostly Cloudy 47 8.2 38 3.3 72 72 ESE 13 20 30.12 1020 7 11.26538 0 0
7:15 pm 19:15 Partly Cloudy 46 8 38 3.6 74 74 ESE 10 17 30.12 1020 10 16.0934 0 0
7:35 pm 19:35 Partly Cloudy 46 7.8 39 4 77 77 E 13 20 30.12 1020 10 16.0934 0 0
7:55 pm 19:55 Partly Cloudy 46 7.8 39 4 77 77 E 13 20 30.12 1020 10 16.0934 0 0
8:15 pm 20:15 Partly Cloudy 46 8 39 3.7 75 75 ESE 9 15 30.12 1020 10 16.0934 0 0
8:35 pm 20:35 Partly Cloudy 46 8 39 3.9 76 76 ESE 6 9 30.12 1020 10 16.0934 0 0
8:55 pm 20:55 Partly Cloudy 46 8 39 4 76 76 ESE 7 11 30.12 1020 10 16.0934 0 0
9:15 pm 21:15 Partly Cloudy 47 8.1 39 4 76 76 ESE 10 17 30.12 1020 10 16.0934 0 0
9:35 pm 21:35 Partly Cloudy 47 8.1 39 4 76 76 E 10 17 30.12 1020 10 16.0934 0 0
9:55 pm 21:55 Clear 47 8.2 39 4 75 75 ESE 10 17 30.12 1020 10 16.0934 0 0
10:15 pm 22:15 Mostly Cloudy 46 8 39 4.1 77 77 ESE 12 19 30.12 1020 7 11.26538 0 0
10:35 pm 22:35 Cloudy with Light Rain 45 7.3 40 4.5 83 83 ESE 13 20 30.12 1020 5 8.0467 0 0
10:55 pm 22:55 Mostly Cloudy with Light Rain 45 7 41 5.1 88 88 ESE 12 19 30.12 1020 10 16.0934 0 0
11:15 pm 23:15 Clear 45 7 41 5.2 88 88 ESE 13 20 30.12 1020 10 16.0934 0 0
11:35 pm 23:35 Partly Cloudy with Light Drizzle 44 6.8 41 5.2 90 90 SE 13 20 30.12 1020 10 16.0934 0 0
11:55 pm 23:55 Partly Cloudy 44 6.8 42 5.5 92 92 SE 10 17 30.12 1020 10 16.0934 0 0

Powered by AerisWeather